Regional Weather Roundup
Issued by NWS

Current Version | Previous Version | Text Only | Print | Product List | Glossary On
Versions: 1 2 3 4 5 6 7 8 9 10 11 12 13 14 15 16 17 18 19 20 21 22 23 24 25 26 27
000
ASCA42 TJSJ 301310
RWRPR
PUERTO RICO/U.S. VIRGIN ISLANDS HOURLY WEATHER ROUNDUP
NATIONAL WEATHER SERVICE SAN JUAN PR
900 AM AST FRI SEP 30 2022

PRZ001>002-007>008-010-301400-
PUERTO RICO

CITY           SKY/WX    TMP DP  RH WIND       PRES   REMARKS
SAN JUAN LMM   MOSUNNY   84  75  74 CALM      29.87R HX  92
AGUADILLA      SUNNY     82  75  78 CALM      29.88R
CEIBA          MOSUNNY   82  73  74 S7        29.89R
$$

VIZ001>002-301400-
U.S. VIRGIN ISLANDS

CITY           SKY/WX    TMP DP  RH WIND       PRES   REMARKS
CHARLOTTE AMA  HVY RAIN  77  73  88 NW10      29.87R
CHRISTIANSTED  PTSUNNY   81  73  78 CALM      29.88S
$$

HOURLY WEATHER ROUNDUP FOR THE NEWS MEDIA

CITY           SKY/WX    TMP DP  RH WIND       PRES   REMARKS
ORLANDO        CLOUDY    67  57  70 NW10      29.81R
NEW YORK       CLOUDY    55  45  68 N14       30.35R
NEWARK         CLOUDY    52  42  69 NE13      30.35R
CHICAGO        MOSUNNY   52  46  80 SE3       30.34S
HARTFORD       PTSUNNY   54  51  90 N6        30.35R
BOSTON         PTSUNNY   52  44  74 N8        30.39R
DALLAS         CLEAR     60  44  55 VRB3      30.14R
PHILADELPHIA   CLOUDY    57  47  69 NE13      30.31R
LOS ANGELES    CLOUDY    69  62  78 CALM      29.90S
WASHINGTON DC  CLOUDY    53  44  71 N8        30.28S


USA.gov is the U.S. government's official web portal to all federal, state and local government web resources and services.